Location: Geseke
(51.6397°N, 8.5105°E)
Time: 05:23:42
(UTC+01:00)

N. Korean satellite - Visible Passes

Search period start: 20 January 2019 00:00
Search period end: 30 January 2019 00:00
Orbit: 458 x 509 km, 97.2° (Epoch: 19 January)

Date Brightness Start Highest point End Pass type
(mag) Time Alt. Az. Time Alt. Az. Time Alt. Az.
20 Jan 9.5 05:53:38 10° NE 05:56:27 20° E 05:59:14 10° SE visible
20 Jan 7.1 07:26:32 10° N 07:30:05 41° WNW 07:33:33 10° SW visible
20 Jan 7.8 18:07:05 10° S 18:10:38 47° W 18:14:17 10° NNW visible
21 Jan 10.2 05:30:14 10° ENE 05:31:32 11° E 05:32:48 10° ESE visible
21 Jan 6.5 07:01:45 10° N 07:05:29 76° WNW 07:09:09 10° SSW visible
21 Jan 6.7 17:42:15 10° SSE 17:45:56 88° W 17:49:42 10° NNW visible
22 Jan 7.3 06:37:07 10° NNE 06:40:48 57° E 06:44:25 10° S visible
22 Jan 9.9 18:52:35 10° SW 18:55:02 17° W 18:57:31 10° NW visible
23 Jan 8.6 06:12:40 10° NNE 06:16:02 31° E 06:19:20 10° SSE visible
23 Jan 8.9 18:26:54 10° SSW 18:30:10 29° W 18:33:29 10° NNW visible
24 Jan 9.6 05:48:35 10° NE 05:51:10 18° E 05:53:43 10° SE visible
24 Jan 6.9 07:21:17 10° N 07:24:51 45° WNW 07:28:22 10° SW visible
24 Jan 7.6 18:01:46 10° S 18:05:23 53° W 18:09:05 10° NNW visible
25 Jan 6.6 06:56:30 10° NNE 07:00:15 85° WNW 07:03:54 10° SSW visible
25 Jan 6.6 17:36:59 10° SSE 17:40:42 82° ENE 17:44:28 10° NNW visible
25 Jan 10.3 19:13:46 10° W 19:14:41 11° W 19:15:36 10° WNW visible
26 Jan 7.6 06:31:54 10° NNE 06:35:32 50° E 06:39:05 10° S visible
26 Jan 9.7 18:47:02 10° SW 18:49:44 19° W 18:52:28 10° NW visible
27 Jan 8.9 06:07:31 10° NE 06:10:44 27° E 06:13:53 10° SSE visible
27 Jan 8.7 18:21:30 10° SSW 18:24:53 33° W 18:28:19 10° NNW visible
28 Jan 9.8 05:43:32 10° NE 05:45:50 16° E 05:48:07 10° SE visible
28 Jan 6.7 07:16:00 10° N 07:19:36 51° WNW 07:23:08 10° SSW visible
28 Jan 7.3 17:56:25 10° S 18:00:07 61° W 18:03:51 10° NNW visible
29 Jan 6.6 06:51:14 10° NNE 06:54:57 84° ESE 06:58:35 10° SSW visible
29 Jan 10.2 19:07:47 10° WSW 19:09:20 12° W 19:10:54 10° WNW visible
